User: anonymous   Login
Location: Unspecified
(0.0000°N, 0.0000°E)
Time: 16:32:16
(UTC+01:00)
Language:

Cosmos 773 Rocket - Orbit

View from above orbital plane
View from above orbital plane
View from above satellite
View from above satellite

Ground track
Ground track

The orbit data is extracted from the following two-line orbital elements,

1 08344U 75094B   16037.21680241  .00000090  00000-0  37699-4 0  9992
2 08344  74.0592 321.3291 0022065 343.9926  16.0529 14.39032595114190
Epoch (UTC): 06 February 2016 05:12:11
Eccentricity: 0.0022065
inclination: 74.0592°
perigee height: 746 km
apogee height: 777 km
right ascension of ascending node: 321.3291°
argument of perigee: 343.9926°
revolutions per day: 14.39032595
mean anomaly at epoch: 16.0529°
orbit number at epoch: 11419

The dashed part of the orbit path shows where the satellite is in the earth's shadow,  

DLR